sat.trackr.live / text

‹ back to catalog

STARLINK-36731

NORAD 68964 · 2026-099P

PAYLOAD ACTIVE UNKNOWN

§ Identity

Operator
Country
US
Launch date
2026-05-01
Launch site
AFETR
Launch vehicle
Mass (kg)
RCS (m²)

Purposes: comms

External: N2YO · Heavens-Above · Gunter

§ Orbital elements

Epoch: 2026-05-25T04:00:03.998880Z

Period
91.74 min
Inclination
53.1592°
Eccentricity
0.0000839
Mean motion
15.69604235 rev/d
Perigee alt
359.5 km
Apogee alt
360.6 km
Semi-major
6,738.2 km
B*
-1.9059e-2
RAAN
269.9443°
Arg perigee
75.0434°
Mean anomaly
280.0164°
Rev number
501

§ Raw data

STARLINK-367311 68964U 26099P   26145.16671295 -.02023731  00000+0 -19059-1 0  99982 68964  53.1592 269.9443 0000839  75.0434 280.0164 15.69604235  5018

JSON: /api/v1/satellites/68964 · /tle

For live sub-satellite position, see the globe view (requires WebGL).

§ Visibility from observer

Set your observer location to see the next 7 days of passes ≥ 10°. The values pass through the URL so the page stays shareable.

No JS? Fill the form by hand. The geolocation button needs JavaScript.